SHT22A EGLL-EGJB

Flight info

Callsign SHT22A
Flight time 0h 33m
Altitude 21000
Route GASGU2J GASGU N866 SAM/N0385F200 N63 LELNA LELNA1V
Aircraft A319/M-SDE3FGIJ1KRWXY/LB1

Departure

Time 2026-04-24 21:35
Airport London Heathrow Airport (EGLL)

Arrival

Time 2026-04-24 22:08
Airport Guernsey Airport (EGJB)
Time Latitude Longitude Altitude Speed Heading
2026-04-24 20:43 51.46932 -0.48787 86 ft 0 kts 360°
2026-04-24 21:07 51.46927 -0.48787 86 ft 3 kts 360°
2026-04-24 21:07 51.46901 -0.48787 88 ft 3 kts 360°
2026-04-24 21:07 51.46882 -0.48784 88 ft 4 kts 312°
2026-04-24 21:08 51.46876 -0.48752 89 ft 3 kts 270°
2026-04-24 21:08 51.46877 -0.48710 86 ft 3 kts 270°
2026-04-24 21:08 51.46877 -0.48705 86 ft 0 kts 270°
2026-04-24 21:11 51.46876 -0.48713 86 ft 4 kts 264°
2026-04-24 21:11 51.46836 -0.48751 86 ft 10 kts 179°
2026-04-24 21:12 51.46807 -0.48751 86 ft 0 kts 179°
2026-04-24 21:12 51.46802 -0.48750 86 ft 2 kts 178°
2026-04-24 21:15 51.46801 -0.48750 86 ft 0 kts 178°
2026-04-24 21:22 51.46800 -0.48750 86 ft 0 kts 178°
2026-04-24 21:28 51.46778 -0.48749 88 ft 9 kts 178°
2026-04-24 21:29 51.46700 -0.48747 86 ft 14 kts 179°
2026-04-24 21:29 51.46613 -0.48761 86 ft 8 kts 195°
2026-04-24 21:29 51.46592 -0.48770 88 ft 0 kts 195°
2026-04-24 21:29 51.46591 -0.48772 88 ft 0 kts 202°
2026-04-24 21:32 51.46589 -0.48773 88 ft 2 kts 202°
2026-04-24 21:32 51.46554 -0.48789 88 ft 9 kts 188°
2026-04-24 21:32 51.46484 -0.48725 86 ft 15 kts 116°
2026-04-24 21:33 51.46479 -0.48618 86 ft 0 kts 89°
2026-04-24 21:34 51.46480 -0.48513 86 ft 33 kts 90°
2026-04-24 21:34 51.46479 -0.47798 87 ft 94 kts 89°
2026-04-24 21:35 51.46486 -0.46443 91 ft 148 kts 90°
2026-04-24 21:35 51.46489 -0.44788 681 ft 145 kts 90°
2026-04-24 21:35 51.46503 -0.43159 1329 ft 149 kts 89°
2026-04-24 21:35 51.46420 -0.41391 1646 ft 173 kts 111°
2026-04-24 21:36 51.45689 -0.39700 1968 ft 199 kts 126°
2026-04-24 21:36 51.45124 -0.38471 2274 ft 214 kts 124°
2026-04-24 21:36 51.44228 -0.36411 2848 ft 237 kts 124°
2026-04-24 21:36 51.43188 -0.34232 3546 ft 254 kts 137°
2026-04-24 21:37 51.41601 -0.32920 4473 ft 262 kts 166°
2026-04-24 21:37 51.39765 -0.32793 5444 ft 270 kts 188°
2026-04-24 21:37 51.38006 -0.33897 6369 ft 278 kts 213°
2026-04-24 21:37 51.36586 -0.36020 7291 ft 280 kts 225°
2026-04-24 21:38 51.35174 -0.38200 8227 ft 284 kts 223°
2026-04-24 21:38 51.33697 -0.40326 9169 ft 287 kts 221°
2026-04-24 21:38 51.32178 -0.42422 10076 ft 291 kts 221°
2026-04-24 21:38 51.30805 -0.44806 10879 ft 294 kts 237°
2026-04-24 21:39 51.29929 -0.47747 11719 ft 296 kts 252°
2026-04-24 21:39 51.29324 -0.51034 12018 ft 320 kts 254°
2026-04-24 21:39 51.28695 -0.54559 12371 ft 337 kts 254°
2026-04-24 21:39 51.28048 -0.58192 13052 ft 343 kts 253°
2026-04-24 21:40 51.27366 -0.61863 13819 ft 346 kts 253°
2026-04-24 21:40 51.26654 -0.65550 14527 ft 349 kts 252°
2026-04-24 21:40 51.25928 -0.69252 15215 ft 351 kts 252°
2026-04-24 21:40 51.25195 -0.72975 15903 ft 353 kts 252°
2026-04-24 21:41 51.24456 -0.76726 16594 ft 355 kts 253°
2026-04-24 21:41 51.23714 -0.80495 17284 ft 357 kts 253°
2026-04-24 21:41 51.22967 -0.84292 17967 ft 360 kts 253°
2026-04-24 21:41 51.22215 -0.88121 18649 ft 362 kts 253°
2026-04-24 21:42 51.21447 -0.91956 19204 ft 365 kts 251°
2026-04-24 21:42 51.20340 -0.95621 19802 ft 369 kts 239°
2026-04-24 21:42 51.18771 -0.98899 20375 ft 375 kts 229°
2026-04-24 21:42 51.16900 -1.01799 20948 ft 378 kts 226°
2026-04-24 21:43 51.14989 -1.04724 21208 ft 380 kts 226°
2026-04-24 21:43 51.13092 -1.07640 21268 ft 378 kts 226°
2026-04-24 21:43 51.11202 -1.10547 21269 ft 377 kts 226°
2026-04-24 21:43 51.09318 -1.13448 21266 ft 377 kts 226°
2026-04-24 21:44 51.07434 -1.16339 21248 ft 377 kts 226°
2026-04-24 21:44 51.05544 -1.19234 21248 ft 377 kts 226°
2026-04-24 21:44 51.03681 -1.22081 21247 ft 377 kts 226°
2026-04-24 21:44 51.01792 -1.24964 21248 ft 377 kts 226°
2026-04-24 21:45 50.99896 -1.27853 21245 ft 377 kts 226°
2026-04-24 21:45 50.98006 -1.30729 21246 ft 377 kts 226°
2026-04-24 21:45 50.96073 -1.33541 21246 ft 378 kts 221°
2026-04-24 21:45 50.93869 -1.35841 21246 ft 381 kts 210°
2026-04-24 21:46 50.91500 -1.37732 21245 ft 382 kts 209°
2026-04-24 21:46 50.89123 -1.39624 21245 ft 382 kts 210°
2026-04-24 21:46 50.86751 -1.41517 21237 ft 382 kts 209°
2026-04-24 21:46 50.84377 -1.43410 21240 ft 382 kts 209°
2026-04-24 21:47 50.82005 -1.45299 21240 ft 382 kts 209°
2026-04-24 21:47 50.79635 -1.47185 21240 ft 382 kts 209°
2026-04-24 21:47 50.77263 -1.49069 21240 ft 382 kts 209°
2026-04-24 21:47 50.74887 -1.50950 21239 ft 381 kts 209°
2026-04-24 21:48 50.72517 -1.52824 21238 ft 381 kts 209°
2026-04-24 21:48 50.70144 -1.54702 21239 ft 381 kts 209°
2026-04-24 21:48 50.67774 -1.56581 21239 ft 381 kts 209°
2026-04-24 21:48 50.65401 -1.58461 21240 ft 382 kts 209°
2026-04-24 21:49 50.63031 -1.60337 21225 ft 381 kts 208°
2026-04-24 21:49 50.60658 -1.62208 21218 ft 382 kts 208°
2026-04-24 21:49 50.58279 -1.64075 21219 ft 382 kts 208°
2026-04-24 21:49 50.55904 -1.65939 21220 ft 382 kts 208°
2026-04-24 21:50 50.53527 -1.67806 21221 ft 382 kts 208°
2026-04-24 21:50 50.51148 -1.69674 21223 ft 382 kts 208°
2026-04-24 21:50 50.48772 -1.71534 21221 ft 382 kts 208°
2026-04-24 21:50 50.46392 -1.73395 21222 ft 382 kts 208°
2026-04-24 21:51 50.44013 -1.75257 21222 ft 382 kts 208°
2026-04-24 21:51 50.41638 -1.77113 21222 ft 382 kts 208°
2026-04-24 21:51 50.39258 -1.78970 21217 ft 382 kts 208°
2026-04-24 21:51 50.36884 -1.80820 21226 ft 381 kts 208°
2026-04-24 21:52 50.34511 -1.82668 21226 ft 381 kts 208°
2026-04-24 21:52 50.32140 -1.84512 21222 ft 380 kts 208°
2026-04-24 21:52 50.29771 -1.86354 21225 ft 380 kts 208°
2026-04-24 21:52 50.27407 -1.88191 21228 ft 379 kts 208°
2026-04-24 21:53 50.25048 -1.90025 21224 ft 379 kts 207°
2026-04-24 21:53 50.22683 -1.91860 21222 ft 379 kts 208°
2026-04-24 21:53 50.20332 -1.93678 21094 ft 374 kts 208°
2026-04-24 21:53 50.18046 -1.95439 20843 ft 369 kts 207°
2026-04-24 21:54 50.15713 -1.97230 20593 ft 368 kts 208°
2026-04-24 21:54 50.13436 -1.98976 20251 ft 362 kts 208°
2026-04-24 21:54 50.11218 -2.00678 19800 ft 358 kts 207°
2026-04-24 21:54 50.08964 -2.02410 19323 ft 355 kts 207°
2026-04-24 21:55 50.06789 -2.04084 18867 ft 352 kts 208°
2026-04-24 21:55 50.04601 -2.05767 18373 ft 349 kts 208°
2026-04-24 21:55 50.02434 -2.07430 17877 ft 346 kts 207°
2026-04-24 21:55 50.00292 -2.09072 17404 ft 341 kts 207°
2026-04-24 21:56 49.98296 -2.11015 16925 ft 337 kts 219°
2026-04-24 21:56 49.96608 -2.13506 16457 ft 333 kts 229°
2026-04-24 21:56 49.95088 -2.16193 15990 ft 330 kts 228°
2026-04-24 21:56 49.93576 -2.18847 15516 ft 327 kts 227°
2026-04-24 21:57 49.92069 -2.21482 15053 ft 325 kts 227°
2026-04-24 21:57 49.90573 -2.24094 14596 ft 323 kts 227°
2026-04-24 21:57 49.89084 -2.26691 14134 ft 322 kts 227°
2026-04-24 21:57 49.87599 -2.29278 13640 ft 321 kts 227°
2026-04-24 21:58 49.86119 -2.31854 13176 ft 318 kts 227°
2026-04-24 21:58 49.84651 -2.34401 12721 ft 316 kts 227°
2026-04-24 21:58 49.83190 -2.36930 12266 ft 314 kts 227°
2026-04-24 21:58 49.81739 -2.39442 11822 ft 312 kts 227°
2026-04-24 21:59 49.80292 -2.41947 11378 ft 311 kts 227°
2026-04-24 21:59 49.78853 -2.44440 10938 ft 310 kts 227°
2026-04-24 21:59 49.77392 -2.46985 10502 ft 319 kts 228°
2026-04-24 21:59 49.75923 -2.49543 10104 ft 316 kts 227°
2026-04-24 22:00 49.74482 -2.52046 9867 ft 307 kts 227°
2026-04-24 22:00 49.73082 -2.54475 9642 ft 298 kts 228°
2026-04-24 22:00 49.71729 -2.56836 9514 ft 287 kts 227°
2026-04-24 22:00 49.70423 -2.59141 9228 ft 283 kts 226°
2026-04-24 22:01 49.69013 -2.61239 8867 ft 282 kts 221°
2026-04-24 22:01 49.67556 -2.63263 8460 ft 282 kts 221°
2026-04-24 22:01 49.66110 -2.65258 8056 ft 283 kts 221°
2026-04-24 22:01 49.64644 -2.67281 7593 ft 282 kts 220°
2026-04-24 22:02 49.63203 -2.69290 7103 ft 277 kts 220°
2026-04-24 22:02 49.61785 -2.71260 6621 ft 272 kts 220°
2026-04-24 22:02 49.60385 -2.73195 6110 ft 268 kts 220°
2026-04-24 22:02 49.58877 -2.74838 5571 ft 265 kts 211°
2026-04-24 22:03 49.57310 -2.76312 5019 ft 263 kts 211°
2026-04-24 22:03 49.55742 -2.77740 4457 ft 261 kts 210°
2026-04-24 22:03 49.54184 -2.79145 3899 ft 259 kts 207°
2026-04-24 22:03 49.52473 -2.79870 3375 ft 255 kts 184°
2026-04-24 22:04 49.50737 -2.79975 3101 ft 244 kts 181°
2026-04-24 22:04 49.49082 -2.80029 2851 ft 232 kts 180°
2026-04-24 22:04 49.47510 -2.80080 2576 ft 221 kts 176°
2026-04-24 22:04 49.46046 -2.79645 2276 ft 211 kts 158°
2026-04-24 22:05 49.44812 -2.78556 2054 ft 198 kts 140°
2026-04-24 22:05 49.43936 -2.77074 2016 ft 179 kts 124°
2026-04-24 22:05 49.43417 -2.75493 1987 ft 154 kts 111°
2026-04-24 22:05 49.43178 -2.73969 1878 ft 142 kts 99°
2026-04-24 22:06 49.43145 -2.72485 1735 ft 139 kts 89°
2026-04-24 22:06 49.43189 -2.71038 1571 ft 131 kts 90°
2026-04-24 22:06 49.43229 -2.69651 1404 ft 130 kts 89°
2026-04-24 22:06 49.43266 -2.68272 1224 ft 129 kts 90°
2026-04-24 22:07 49.43306 -2.66905 1026 ft 129 kts 87°
2026-04-24 22:07 49.43345 -2.65563 910 ft 125 kts 89°
2026-04-24 22:07 49.43383 -2.64179 692 ft 131 kts 87°
2026-04-24 22:07 49.43424 -2.62816 549 ft 124 kts 87°
2026-04-24 22:08 49.43460 -2.61493 357 ft 122 kts 87°
2026-04-24 22:08 49.43493 -2.60341 310 ft 76 kts 87°
2026-04-24 22:08 49.43508 -2.59818 325 ft 37 kts 88°
2026-04-24 22:08 49.43516 -2.59504 333 ft 23 kts 88°
2026-04-24 22:09 49.43521 -2.59273 335 ft 22 kts 92°
2026-04-24 22:09 49.43425 -2.59199 334 ft 19 kts 183°
2026-04-24 22:09 49.43370 -2.59348 334 ft 19 kts 267°
2026-04-24 22:09 49.43365 -2.59525 328 ft 15 kts 267°
2026-04-24 22:10 49.43363 -2.59604 330 ft 1 kts 267°
2026-04-24 22:10 49.43347 -2.59626 327 ft 5 kts 184°
2026-04-24 22:10 49.43303 -2.59623 329 ft 6 kts 179°
2026-04-24 22:10 49.43278 -2.59621 326 ft 4 kts 178°
2026-04-24 22:11 49.43254 -2.59620 328 ft 1 kts 179°
2026-04-24 22:11 49.43253 -2.59620 328 ft 0 kts 179°